AZTECHSAT-1 (45261 NORAD) Tracking and Keplerian Element Data

This shows tracking and keplerian element data for the satellite.

Feedback or suggestion? Click here.




ElementValue
Catalog45261
NameAZTECHSAT-1
Epoch Orbit2277
Epoch Day196.90079147
Epoch Year2020
RAAN209.2661
Inclination51.6399
Eccentricity0.0008162
Argument of Perigee97.8716
Mean Anonmoly262.32
Mean Motion15.52125123
Decay Rate6.631E-05
L11 45261U 98067RE 20196.90079147 .00006631 00000-0 11515-3 0 9995
L22 45261 51.6399 209.2661 0008162 97.8716 262.3200 15.52125123 22774

Live tracking and technical data element details for AZTECHSAT-1 (NORAD 45261). AZTECHSAT-1 can be tracked NOW for your location showing map with azimuth and elevation plus other details from your city location.

Track the satellite on the map from your city or location and see movement details for azimuth, elevation, latitude, longitude, range, height, and movement on the map or in text.







IsCatalogInMostPopularTable: catalog: 45261, numindb: 38
Update: records affected: 1



GetName: 45261 AZTECHSAT-1

Hit Count: updated at: Thu, 16 Jul 2020 02:52:37 GMT